Temp
-7 -6 -6 -6 -6 -6 -6 -6 -6 -6 -6 -6 -6 -5 -5 -5 -5 -5 -5 -5 -5 -6 -6 -6 -6 -6 -6 -6 -6 -6 -6 -5 -5 -6 -5 -5 -5 -6 -6 -6 -7 -7 -7
-6 -6 -6 -6 -6 -6 -6 -6 -6 -6 -6 -6 -6 -5 -5 -5 -5 -5 -6 -6 -6 -5 -6 -6 -6 -6 -6 -6 -6 -6 -6 -6 -6 -5 -5 -6 -5 -5 -6 -6 -7 -7 -7
-6 -6 -6 -6 -6 -6 -6 -6 -6 -6 -6 -6 -6 -6 -6 -6 -5 -5 -6 -6 -6 -6 -6 -6 -6 -6 -6 -6 -6 -6 -6 -6 -6 -6 -5 -5 -5 -6 -6 -6 -6 -7 -7
-7 -7 -6 -6 -6 -6 -6 -6 -6 -5 -5 -6 -6 -6 -5 -5 -6 -6 -6 -5 -6 -6 -6 -6 -6 -6 -6 -6 -6 -6 -6 -6 -6 -6 -6 -6 -6 -6 -6 -6 -7 -7 -7
-7 -7 -6 -6 -6 -6 -5 -5 -5 -6 -6 -5 -5 -5 -5 -5 -6 -6 -6 -6 -6 -6 -6 -6 -6 -6 -6 -6 -6 -6 -6 -6 -6 -6 -6 -6 -6 -6 -6 -6 -7 -7 -7
-6 -6 -6 -6 -6 -5 -5 -5 -5 -5 -6 -6 -5 -5 -5 -5 -5 -5 -6 -6 -6 -6 -6 -6 -6 -6 -5 -5 -5 -6 -6 -6 -6 -6 -6 -6 -6 -7 -7 -6 -7 -7 -7
-6 -6 -6 -6 -6 -5 -5 -5 -5 -5 -5 -6 -5 -5 -5 -5 -5 -5 -6 -6 -6 -6 -6 -6 -6 -5 -5 -5 -5 -6 -6 -6 -6 -6 -6 -6 -6 -6 -7 -7 -7 -7 -7
-7 -6 -6 -6 -6 -6 -6 -6 -5 -5 -5 -6 -5 -5 -6 -5 -5 -6 -6 -6 -5 -5 -6 -5 -5 -5 -5 -5 -6 -6 -6 -6 -5 -5 -6 -6 -6 -6 -6 -6 -7 -7 -7
-6 -6 -6 -6 -6 -6 -6 -6 -6 -6 -6 -6 -6 -5 -6 -6 -6 -5 -5 -5 -5 -5 -5 -5 -6 -6 -6 -5 -5 -6 -5 -5 -5 -5 -6 -6 -6 -6 -6 -6 -6 -7 -7
-7 -7 -7 -7 -7 -7 -6 -6 -6 -6 -6 -6 -5 -5 -6 -6 -6 -6 -6 -6 -5 -5 -5 -6 -6 -6 -6 -6 -6 -6 -6 -6 -6 -6 -6 -6 -6 -6 -7 -7 -7 -7 -7
-7 -7 -7 -7 -7 -7 -6 -6 -6 -6 -6 -6 -5 -5 -5 -6 -6 -6 -6 -5 -6 -6 -6 -6 -6 -6 -6 -6 -6 -6 -6 -6 -6 -6 -6 -6 -7 -6 -7 -7 -7 -7 -7
-7 -7 -7 -7 -7 -7 -7 -6 -6 -6 -6 -6 -6 -6 -6 -6 -6 -6 -6 -5 -6 -6 -6 -6 -6 -6 -6 -6 -6 -6 -6 -5 -6 -7 -7 -7 -7 -7 -7 -7 -7 -7 -7
-7 -7 -7 -7 -7 -7 -7 -6 -6 -6 -6 -6 -6 -6 -6 -6 -5 -5 -6 -6 -5 -5 -6 -6 -6 -6 -6 -5 -5 -5 -6 -6 -6 -6 -6 -6 -6 -7 -7 -7 -7 -7 -7
-8 -8 -8 -7 -7 -7 -6 -6 -6 -6 -6 -6 -6 -6 -6 -6 -6 -5 -5 -6 -6 -5 -5 -5 -5 -5 -5 -6 -5 -5 -5 -5 -5 -5 -6 -6 -6 -6 -6 -7 -7 -7 -7
-8 -8 -7 -7 -7 -6 -6 -6 -7 -6 -6 -6 -6 -6 -6 -6 -6 -6 -5 -6 -6 -6 -6 -6 -6 -6 -6 -6 -6 -6 -6 -6 -6 -6 -6 -6 -6 -6 -7 -7 -7 -7 -7
-8 -8 -7 -7 -7 -7 -7 -7 -7 -6 -6 -6 -6 -6 -6 -6 -6 -6 -6 -6 -6 -6 -6 -6 -6 -6 -6 -6 -6 -6 -6 -6 -6 -6 -6 -6 -6 -6 -7 -7 -7 -7 -7
-8 -8 -7 -7 -7 -7 -7 -7 -6 -6 -6 -6 -6 -6 -6 -6 -6 -6 -6 -6 -6 -6 -6 -6 -6 -6 -6 -6 -6 -5 -5 -5 -6 -6 -6 -6 -6 -7 -7 -7 -7 -8 -8
-8 -8 -8 -7 -7 -7 -7 -7 -7 -7 -7 -7 -7 -6 -6 -6 -6 -6 -6 -6 -6 -6 -6 -5 -6 -6 -6 -6 -5 -5 -5 -6 -6 -6 -6 -6 -7 -7 -7 -7 -7 -7 -8
-8 -8 -7 -7 -7 -7 -7 -7 -7 -7 -7 -7 -7 -7 -7 -7 -7 -7 -7 -6 -6 -6 -5 -5 -5 -6 -6 -5 -6 -6 -6 -6 -6 -6 -7 -7 -7 -7 -7 -7 -7 -7 -8
-8 -8 -7 -7 -7 -7 -7 -7 -7 -7 -7 -7 -7 -7 -7 -6 -7 -7 -7 -7 -6 -7 -7 -6 -6 -5 -5 -5 -6 -6 -6 -6 -7 -7 -7 -8 -8 -8 -8 -8 -8 -8 -8
-8 -8 -7 -7 -7 -7 -7 -7 -7 -8 -7 -7 -7 -7 -7 -7 -7 -7 -7 -7 -7 -7 -7 -7 -6 -6 -6 -6 -7 -7 -7 -7 -7 -7 -8 -8 -8 -9 -9 -9 -9 -9 -9
-9 -9 -9 -8 -8 -7 -7 -7 -7 -7 -8 -8 -8 -8 -8 -8 -8 -7 -8 -7 -7 -7 -7 -7 -7 -6 -7 -7 -7 -7 -7 -8 -8 -8 -8 -8 -9 -9 -9 -9 -9 -9 -9
-8 -8 -8 -9 -9 -8 -8 -7 -7 -7 -7 -7 -7 -7 -7 -8 -7 -8 -8 -8 -8 -7 -7 -7 -7 -7 -7 -7 -7 -7 -8 -8 -8 -9 -9 -9 -9 -9 -9 -9 -9 -9 -10
-9 -8 -8 -8 -9 -9 -8 -8 -8 -8 -7 -8 -8 -7 -7 -7 -8 -8 -8 -9 -8 -8 -7 -7 -8 -8 -8 -8 -8 -8 -8 -9 -9 -9 -9 -9 -9 -9 -9 -9 -9 -10 -10
-9 -9 -8 -9 -8 -9 -8 -8 -8 -8 -8 -8 -8 -8 -8 -7 -8 -8 -8 -8 -8 -8 -8 -8 -8 -8 -8 -8 -8 -9 -9 -9 -9 -9 -9 -10 -10 -10 -10 -10 -10 -10 -10
-10 -9 -9 -7 -8 -8 -9 -8 -9 -9 -8 -8 -8 -8 -8 -8 -8 -9 -8 -9 -9 -9 -9 -9 -9 -9 -9 -8 -8 -9 -9 -9 -9 -9 -9 -10 -10 -10 -10 -10 -10 -10 -10
Height
5911 5914 5915 5917 5918 5920 5921 5922 5923 5924 5924 5925 5925 5925 5925 5926 5926 5926 5925 5924 5924 5924 5923 5922 5922 5921 5919 5919 5919 5919 5918 5918 5919 5919 5919 5918 5918 5918 5918 5920 5921 5922 5923
5913 5914 5916 5918 5920 5921 5922 5923 5924 5924 5924 5925 5925 5925 5926 5927 5927 5926 5926 5925 5926 5925 5924 5922 5921 5920 5919 5920 5920 5919 5918 5917 5917 5918 5918 5919 5918 5917 5918 5919 5921 5921 5922
5915 5916 5918 5919 5919 5921 5922 5922 5923 5924 5925 5926 5926 5926 5927 5927 5927 5926 5926 5925 5925 5925 5924 5922 5920 5919 5918 5917 5918 5918 5918 5916 5917 5917 5918 5918 5918 5917 5917 5917 5918 5920 5922
5916 5917 5917 5918 5920 5921 5922 5922 5922 5923 5925 5926 5925 5925 5926 5926 5926 5925 5925 5925 5925 5924 5922 5920 5918 5917 5916 5916 5915 5916 5916 5915 5914 5915 5916 5916 5916 5917 5917 5917 5917 5919 5920
5916 5916 5918 5919 5919 5921 5922 5922 5922 5923 5925 5925 5925 5925 5924 5924 5923 5923 5923 5923 5923 5923 5921 5920 5918 5914 5913 5913 5912 5912 5912 5911 5910 5912 5913 5913 5914 5916 5916 5917 5918 5919 5920
5916 5917 5918 5919 5920 5920 5920 5921 5921 5922 5923 5923 5923 5924 5923 5921 5920 5922 5921 5920 5921 5921 5919 5918 5915 5913 5911 5910 5909 5909 5908 5908 5909 5909 5911 5912 5913 5913 5915 5915 5916 5917 5918
5914 5915 5916 5918 5918 5919 5919 5920 5921 5920 5920 5920 5921 5921 5921 5920 5920 5919 5919 5919 5919 5918 5916 5914 5911 5910 5908 5907 5906 5905 5904 5903 5904 5905 5908 5910 5912 5912 5910 5911 5912 5914 5917
5913 5913 5914 5915 5915 5917 5917 5917 5918 5919 5918 5918 5919 5919 5919 5920 5919 5919 5918 5916 5915 5913 5913 5912 5909 5907 5906 5904 5902 5900 5899 5900 5898 5894 5905 5906 5907 5908 5909 5909 5908 5909 5911
5912 5913 5913 5914 5914 5915 5915 5916 5917 5917 5917 5917 5917 5917 5917 5918 5918 5917 5916 5913 5910 5908 5907 5907 5907 5906 5905 5903 5901 5897 5897 5896 5898 5900 5901 5902 5904 5905 5905 5906 5906 5905 5907
5910 5912 5914 5915 5915 5914 5914 5915 5915 5916 5917 5916 5915 5914 5914 5915 5915 5914 5913 5910 5906 5904 5904 5905 5905 5904 5903 5902 5900 5897 5896 5896 5898 5899 5899 5900 5900 5901 5903 5904 5904 5903 5904
5911 5911 5911 5911 5911 5912 5912 5913 5913 5913 5912 5912 5910 5910 5910 5910 5911 5911 5910 5908 5904 5902 5903 5903 5902 5902 5902 5900 5899 5898 5898 5898 5899 5898 5898 5899 5899 5898 5899 5901 5902 5902 5902
5909 5909 5909 5909 5909 5909 5909 5910 5910 5909 5908 5907 5905 5904 5905 5907 5908 5908 5907 5906 5904 5902 5901 5901 5901 5900 5899 5898 5898 5897 5898 5898 5898 5898 5897 5897 5897 5897 5898 5899 5899 5900 5900
5908 5908 5908 5908 5909 5908 5908 5908 5908 5907 5907 5906 5904 5902 5903 5904 5905 5906 5906 5905 5903 5902 5901 5900 5899 5898 5897 5896 5895 5895 5895 5895 5894 5895 5895 5896 5896 5895 5895 5896 5896 5897 5897
5905 5905 5905 5905 5904 5904 5904 5905 5905 5905 5905 5904 5903 5903 5903 5902 5903 5903 5903 5903 5902 5902 5900 5899 5898 5896 5895 5894 5894 5893 5892 5892 5892 5892 5891 5892 5891 5891 5891 5892 5892 5893 5894
5901 5901 5901 5901 5901 5900 5900 5901 5901 5902 5901 5901 5901 5901 5901 5901 5901 5902 5901 5900 5899 5898 5897 5896 5896 5895 5895 5893 5891 5890 5889 5889 5889 5889 5889 5889 5888 5887 5886 5887 5887 5887 5886
5896 5897 5897 5897 5897 5897 5897 5897 5897 5897 5898 5897 5897 5897 5897 5897 5897 5897 5897 5896 5895 5896 5894 5893 5891 5890 5889 5890 5889 5889 5888 5887 5885 5884 5884 5883 5883 5882 5882 5881 5880 5880 5880
5893 5893 5893 5893 5893 5893 5893 5893 5892 5892 5893 5893 5892 5892 5892 5892 5892 5893 5892 5891 5890 5888 5887 5888 5887 5885 5884 5883 5884 5883 5883 5882 5881 5880 5879 5878 5877 5876 5876 5876 5876 5874 5873
5894 5892 5889 5888 5888 5889 5889 5889 5888 5888 5887 5887 5888 5889 5888 5888 5888 5889 5888 5886 5884 5883 5882 5880 5879 5880 5880 5880 5878 5877 5877 5876 5876 5875 5874 5872 5871 5870 5870 5868 5868 5867 5867
5887 5885 5887 5886 5884 5883 5882 5882 5883 5882 5883 5883 5882 5882 5882 5883 5882 5881 5880 5879 5879 5878 5876 5874 5874 5873 5873 5871 5870 5870 5870 5868 5866 5865 5864 5863 5862 5862 5861 5860 5859 5858 5859
5883 5881 5880 5880 5880 5877 5876 5876 5876 5876 5875 5875 5875 5875 5875 5875 5873 5873 5873 5872 5871 5871 5869 5868 5868 5866 5864 5864 5863 5861 5859 5859 5858 5856 5855 5854 5852 5851 5851 5850 5849 5849 5848
5875 5875 5875 5874 5874 5874 5871 5868 5868 5868 5868 5867 5866 5866 5867 5866 5865 5864 5864 5863 5863 5862 5861 5861 5859 5858 5857 5855 5853 5851 5849 5849 5848 5846 5843 5842 5841 5841 5841 5840 5839 5839 5838
5865 5864 5866 5866 5866 5867 5866 5863 5862 5861 5860 5859 5859 5859 5858 5858 5857 5856 5855 5854 5853 5853 5854 5854 5852 5849 5848 5846 5845 5841 5839 5836 5836 5836 5836 5833 5832 5832 5831 5831 5829 5830 5829
5852 5852 5852 5854 5854 5856 5858 5856 5854 5853 5853 5852 5852 5851 5850 5848 5849 5848 5846 5845 5844 5842 5842 5843 5842 5840 5838 5836 5834 5834 5831 5830 5829 5827 5826 5825 5823 5822 5822 5821 5820 5820 5819
5838 5838 5838 5840 5842 5843 5846 5847 5846 5845 5843 5842 5841 5842 5841 5838 5836 5836 5837 5835 5835 5833 5832 5832 5832 5831 5828 5826 5825 5824 5822 5820 5821 5820 5817 5816 5815 5813 5812 5811 5811 5810 5810
5823 5824 5822 5825 5828 5830 5834 5836 5836 5837 5836 5833 5831 5830 5830 5828 5826 5826 5826 5826 5825 5823 5822 5821 5820 5821 5819 5817 5817 5815 5813 5812 5811 5811 5809 5808 5806 5805 5803 5802 5801 5801 5800
5806 5808 5807 5806 5815 5817 5820 5824 5823 5824 5825 5825 5821 5819 5820 5818 5816 5815 5817 5816 5815 5815 5812 5810 5810 5810 5809 5808 5806 5806 5803 5803 5801 5800 5799 5797 5795 5796 5794 5793 5792 5792 5792
Wind_Speed
17 17 15 13 16 15 14 12 9 8 5 6 7 8 5 4 3 4 5 7 5 6 5 6 5 6 6 4 4 3 2 2 2 1 0 2 4 5 6 8 8 7 13
17 15 13 13 13 12 11 10 8 6 4 3 4 4 3 2 2 3 4 4 4 5 5 5 5 7 5 3 3 3 4 4 2 3 4 3 2 3 4 6 9 9 10
15 14 13 12 12 10 9 8 5 5 3 2 1 2 2 2 3 3 3 5 5 6 7 4 6 7 9 8 9 6 5 6 5 6 5 6 6 5 6 7 9 10 10
9 9 8 8 6 5 4 5 4 4 2 2 1 3 5 3 3 4 4 3 6 4 6 8 9 11 13 10 4 6 11 12 9 6 7 8 8 7 7 8 9 11 12
6 7 7 6 5 4 3 3 4 4 2 0 1 4 4 5 4 3 3 4 6 7 7 8 11 14 13 10 7 10 12 14 16 9 10 11 10 10 8 8 10 12 14
5 4 5 6 5 4 4 4 4 5 6 3 4 4 4 7 6 3 3 5 7 8 10 11 11 11 10 10 13 14 15 18 19 12 14 13 11 11 11 10 11 13 15
6 6 8 9 7 3 6 7 5 8 8 3 4 5 5 6 7 8 7 9 11 11 10 11 12 10 9 10 13 13 14 13 19 20 18 14 13 12 12 13 12 14 14
8 8 8 9 8 8 7 7 7 7 8 8 7 7 8 9 10 10 13 15 16 16 14 12 9 9 8 6 9 10 13 14 20 18 15 19 17 13 12 11 11 17 18
10 6 8 6 8 6 6 9 11 10 11 10 11 13 13 11 11 13 14 16 18 19 17 12 7 8 6 6 10 7 5 14 13 15 12 16 15 14 17 14 12 14 21
5 3 4 8 10 9 8 8 9 9 13 15 16 17 15 13 11 8 8 11 12 11 10 8 6 5 5 5 5 5 4 7 5 10 10 12 15 15 12 13 12 13 18
6 5 7 7 8 10 12 12 14 13 13 13 16 17 16 13 10 4 4 7 8 4 1 5 5 4 4 5 3 2 1 1 3 7 6 5 7 10 7 10 11 12 14
9 10 11 11 11 12 12 13 12 10 8 9 12 11 13 12 8 5 2 2 3 6 5 4 4 3 3 5 5 4 3 5 5 9 8 7 10 10 10 12 13 15 16
10 11 11 11 12 13 13 14 11 10 9 8 8 5 4 6 6 5 4 4 4 3 2 3 4 6 5 6 6 5 6 7 6 9 11 12 13 13 13 14 16 17 20
9 10 11 11 11 12 13 12 12 13 11 11 10 7 7 7 8 9 10 8 8 9 9 8 9 9 8 9 9 9 9 10 10 11 13 15 15 17 18 18 18 19 20
8 9 10 11 11 12 13 13 13 13 14 14 13 13 14 14 14 14 15 14 12 12 13 14 14 14 14 13 14 12 12 12 13 14 16 17 18 18 21 23 24 24 23
10 10 11 11 12 13 14 14 14 14 15 15 15 15 15 15 14 14 16 17 16 16 16 17 18 19 20 19 19 19 18 19 19 20 21 22 23 23 24 25 26 28 30
9 11 12 13 14 14 14 12 15 16 17 18 18 18 18 18 16 15 16 18 18 19 19 18 20 21 23 24 23 23 22 24 25 26 27 28 29 30 31 30 29 29 31
16 17 16 17 16 17 16 18 17 17 18 19 19 20 21 21 21 21 21 21 23 23 23 25 25 25 26 26 26 27 28 29 31 32 31 32 31 34 35 36 35 36 33
18 18 19 20 19 20 21 21 21 22 22 24 23 22 23 23 24 24 25 28 27 26 26 28 28 27 27 28 30 32 33 34 32 34 34 37 36 36 37 38 39 39 38
25 24 19 19 20 18 21 24 25 25 24 25 24 26 26 27 28 29 29 30 32 31 31 30 29 28 28 30 32 34 35 35 36 37 36 35 34 34 35 36 39 41 41
32 32 30 26 22 22 19 20 22 24 28 29 29 29 29 29 30 31 32 33 32 35 34 32 30 30 32 34 36 37 37 37 36 35 35 34 32 31 32 34 37 39 41
38 41 38 34 31 28 26 23 21 22 22 25 26 26 27 27 29 30 32 34 35 33 32 31 33 35 36 35 34 32 34 33 30 31 33 32 31 32 31 33 34 36 38
40 42 46 43 37 35 32 30 29 27 27 28 28 28 30 31 33 35 34 34 33 34 33 33 35 35 33 31 31 32 30 28 28 27 28 31 31 31 32 31 31 33 35
44 42 50 48 48 40 39 36 34 33 30 30 29 30 32 33 37 36 35 33 31 28 29 32 34 32 32 33 32 32 29 27 27 27 28 29 31 31 31 33 33 33 33
37 43 46 53 49 48 43 39 37 37 35 34 33 32 34 33 31 32 29 28 31 31 32 32 32 34 33 33 31 30 29 27 27 28 28 28 29 30 32 34 34 33 33
40 41 43 44 59 53 49 43 41 40 40 40 35 33 33 29 25 26 30 32 32 33 33 33 33 33 34 35 33 34 31 32 32 32 31 30 29 29 29 32 34 34 33
Wind_Direction
114 113 115 123 121 123 121 118 124 124 110 106 107 99 94 97 85 67 69 65 56 57 49 29 60 80 69 40 32 18 348 346 324 321 278 171 158 163 197 214 205 199 203
118 116 115 129 125 122 125 132 138 124 124 104 81 97 100 81 9 3 14 16 9 20 21 12 351 344 23 49 318 304 289 265 243 260 265 259 250 215 199 213 204 206 208
127 130 132 133 123 135 146 149 150 142 145 154 150 288 293 277 293 308 355 6 343 354 353 334 323 312 307 295 320 258 260 271 257 246 243 255 251 240 227 209 202 213 207
132 134 126 120 132 145 167 188 189 181 196 230 253 310 308 291 265 277 285 310 323 337 341 321 305 309 293 289 287 283 282 254 235 244 238 245 248 240 227 222 213 210 213
142 154 159 153 160 165 185 184 196 191 157 134 261 297 307 296 274 256 261 277 307 322 320 310 314 302 306 279 285 285 292 275 251 232 246 239 233 245 231 238 238 230 223
171 173 196 200 204 197 224 235 201 223 170 193 288 268 259 326 313 279 250 275 286 297 304 308 307 308 316 277 272 274 276 282 265 243 240 249 249 241 242 232 238 237 231
206 215 211 203 218 229 221 228 220 218 261 208 259 286 324 325 329 302 289 276 286 292 300 314 315 320 328 299 282 278 273 257 238 247 250 234 245 254 242 243 247 245 245
223 230 244 221 235 231 231 239 245 240 253 255 262 284 291 297 298 302 301 295 291 289 282 293 304 315 335 333 315 276 254 236 236 250 250 234 232 236 244 253 265 252 239
218 247 248 234 242 240 248 248 256 254 257 267 275 275 279 288 291 300 305 301 293 278 266 265 271 291 293 319 338 274 290 209 236 221 239 230 238 245 252 262 274 260 238
256 275 265 246 245 252 263 263 270 278 269 267 277 280 282 287 293 300 334 340 321 297 258 252 251 246 266 313 22 26 173 190 218 234 244 244 234 242 236 250 261 274 243
271 275 282 279 270 264 265 271 281 287 287 292 284 275 265 263 266 265 332 22 17 5 247 224 213 213 271 292 323 36 68 210 257 228 249 260 271 244 253 262 262 262 250
272 270 270 275 281 283 285 281 278 272 281 311 310 281 254 242 227 243 272 322 44 62 104 175 178 205 243 273 279 291 278 248 264 240 234 249 252 268 260 260 266 265 258
277 276 273 275 268 274 271 277 270 259 267 298 335 322 243 223 228 237 260 282 298 289 213 198 215 219 221 230 245 264 276 274 271 257 260 266 260 257 261 257 262 266 266
284 282 282 275 266 262 263 263 259 263 269 276 284 283 274 263 256 266 280 283 283 286 281 273 269 268 261 261 260 256 258 262 268 262 263 264 267 270 269 266 262 261 262
285 280 273 271 265 268 269 269 269 269 274 277 276 274 273 274 277 282 286 287 286 279 280 283 282 279 278 274 270 265 265 267 267 269 275 276 274 269 266 266 267 266 263
279 286 290 289 286 282 278 277 277 274 273 272 270 267 268 270 274 277 282 285 285 286 283 281 281 284 285 284 285 286 285 281 277 276 273 271 271 271 270 270 269 269 268
273 277 279 278 276 276 275 278 272 273 274 271 270 270 271 271 273 273 272 276 278 275 276 278 281 281 281 284 286 287 284 282 281 278 277 276 274 273 274 273 271 268 265
289 281 271 268 269 270 271 268 272 274 272 272 273 275 275 275 275 276 275 273 271 275 283 285 284 286 285 285 283 280 279 281 284 285 288 284 281 277 274 273 272 274 275
283 285 284 282 273 267 265 266 266 267 270 270 270 270 272 276 279 277 275 275 275 273 272 280 287 289 283 276 277 279 280 281 283 284 287 287 286 283 276 273 269 269 271
279 276 271 278 282 276 270 267 263 262 262 266 269 271 272 274 276 277 274 273 272 275 279 283 283 285 284 284 282 280 281 285 285 285 285 283 282 281 280 277 274 271 268
273 273 272 269 266 276 273 265 264 264 265 265 266 267 272 272 275 278 280 280 280 280 286 287 283 284 286 287 287 287 287 288 285 284 284 283 282 279 275 269 269 270 268
269 269 267 264 264 265 268 267 264 260 258 260 266 267 268 270 274 278 282 283 282 283 289 289 290 287 286 287 286 283 284 285 284 282 284 282 280 280 277 275 272 271 270
261 261 260 258 254 258 257 259 259 258 261 264 266 267 272 274 273 276 281 284 285 277 273 282 283 284 284 284 285 287 287 284 287 286 284 282 278 277 277 276 274 272 270
255 267 256 254 249 247 249 252 258 260 260 266 269 274 278 282 279 278 283 282 283 285 282 282 285 283 281 280 280 283 283 286 286 286 282 280 280 278 277 274 272 271 269
273 268 258 253 246 248 247 248 255 262 267 266 272 281 281 282 283 286 286 281 281 283 284 283 282 283 281 280 281 283 283 282 283 286 284 282 282 282 280 278 276 273 270
268 263 251 241 250 252 241 245 250 258 266 268 270 279 284 288 290 284 286 284 282 285 287 289 288 288 287 286 284 284 279 280 280 283 281 278 279 280 280 279 278 276 271